Regional Weather Roundup
Issued by NWS Northern Indiana

Home | Current Version | Previous Version | Text Only | Print | Product List | Glossary On
Versions: 1 2 3 4 5 6 7 8 9 10 11 12 13 14 15 16 17 18 19 20 21 22 23 24 25 26 27 28 29 30 31 32 33 34 35 36 37 38 39 40 41 42 43 44 45 46 47 48 49 50
000
ASUS43 KIWX 250011
RWRIWX

KIWX WEATHER ROUNDUP
NATIONAL WEATHER SERVICE NORTHERN INDIANA
800 PM EDT MON JUL 24 2017

NOTE: "FAIR" INDICATES FEW OR NO CLOUDS BELOW 12,000 FEET WITH NO
SIGNIFICANT WEATHER AND/OR OBSTRUCTIONS TO VISIBILITY.

* THESE STATIONS ARE NOT UNDER NWS QUALITY CONTROL. THEY ALSO MAY NOT
  REPORT WEATHER SUCH AS PRECIPITATION OR FOG.

INZ001>027-250100-
NORTHERN INDIANA

CITY           SKY/WX    TMP DP  RH WIND       PRES   REMARKS
GARY*          PTSUNNY   70  59  68 N5G16     30.08R
VALPARAISO     SUNNY     72  62  71 N6        30.06R
6HR MIN TEMP:  72; 6HR MAX TEMP:  76;

MICHIGAN CITY* MOSUNNY   70  61  73 N8        30.07R
LAPORTE*       SUNNY     70  62  75 N10       30.07R
6HR MIN TEMP:  70; 6HR MAX TEMP:  73;

KNOX*          SUNNY     72  63  73 N7        30.04S
SOUTH BEND     SUNNY     73  58  59 N7        30.06R
6HR MIN TEMP:  71; 6HR MAX TEMP:  76;

ELKHART*       SUNNY     73  57  56 CALM      30.05
GOSHEN         PTSUNNY   74  55  51 NE5       30.05S
6HR MIN TEMP:  72; 6HR MAX TEMP:  76;

MONTICELLO*    SUNNY     74  61  63 N7        30.02S
6HR MIN TEMP:  73; 6HR MAX TEMP:  77;

LOGANSPORT*    SUNNY     73  59  60 NE5       30.04R
ROCHESTER*     SUNNY     73  61  64 NE6       30.05R
WARSAW*        MOSUNNY   70  55  60 NE5       30.06R
AUBURN*        MOSUNNY   70  55  60 NE3       30.06R
FORT WAYNE     PTSUNNY   73  57  57 NE8       30.05R
6HR MIN TEMP:  72; 6HR MAX TEMP:  77;

HUNTINGTON*    SUNNY     72  60  67 N7        30.04R
6HR MIN TEMP:  70; 6HR MAX TEMP:  75;

PERU/GRISSOM   MOSUNNY   74  62  66 NE9       30.02R
6HR MIN TEMP:  74; 6HR MAX TEMP:  78;


$$
INZ028>050-250100-
CENTRAL INDIANA

CITY           SKY/WX    TMP DP  RH WIND       PRES   REMARKS
LAFAYETTE      MOSUNNY   75  62  64 N8        30.02R
6HR MIN TEMP:  74; 6HR MAX TEMP:  79;

KOKOMO*        MOSUNNY   74  62  66 NE8       30.04R
6HR MIN TEMP:  73; 6HR MAX TEMP:  80;

MUNCIE*        MOSUNNY   75  60  59 NE8       30.03R
6HR MIN TEMP:  75; 6HR MAX TEMP:  80;

INDIANAPOLIS   MOSUNNY   79  63  57 N10       29.99R
6HR MIN TEMP:  78; 6HR MAX TEMP:  82;


$$
MIZ043>046-050>051-056>058-064>065-071>073-077>080-250100-
SOUTHWEST LOWER MICHIGAN

CITY           SKY/WX    TMP DP  RH WIND       PRES   REMARKS
BATTLE CREEK   MOSUNNY   74  55  51 NE7       30.06S
6HR MIN TEMP:  71; 6HR MAX TEMP:  76;

BENTON HARBOR  SUNNY     71  60  68 VRB3      30.06S
6HR MIN TEMP:  70; 6HR MAX TEMP:  73;

COLDWATER*     SUNNY     71  56  59 NE3       30.06S
6HR MIN TEMP:  68; 6HR MAX TEMP:  73;

HILLSDALE*     CLOUDY    70  52  52 NE7       30.06R
HOLLAND        MOSUNNY   72  58  61 NW9       30.07R
6HR MIN TEMP:  72; 6HR MAX TEMP:  79;

GRAND RAPIDS   MOSUNNY   76  54  46 CALM      30.06R
6HR MIN TEMP:  73; 6HR MAX TEMP:  79;

KALAMAZOO      MOSUNNY   75  52  44 E6        30.06S
6HR MIN TEMP:  72; 6HR MAX TEMP:  77;

STURGIS*       SUNNY     69  59  68 E5        30.05S
6HR MIN TEMP:  69; 6HR MAX TEMP:  72;

THREE RIVERS*  FAIR      72  55  55 NE5       30.06S
6HR MIN TEMP:  70; 6HR MAX TEMP:  74;


$$
OHZ001>008-015>018-024>025-250100-
NORTHWEST OHIO

CITY           SKY/WX    TMP DP  RH WIND       PRES   REMARKS
WAUSEON*       FAIR      72  59  64 N5        30.04S
DEFIANCE       CLEAR    N/A N/A N/A N5        30.05R
FINDLAY        CLEAR     71  57  61 N10       30.03S
6HR MIN TEMP:  71; 6HR MAX TEMP:  76;

TOLEDO EXPRESS CLEAR     72  57  59 N7        30.03S
6HR MIN TEMP:  68; 6HR MAX TEMP:  73;

TOLEDO METCALF CLEAR     73  58  59 N6        30.04R
6HR MIN TEMP:  70; 6HR MAX TEMP:  74;

LIMA           PTCLDY    68  59  73 N10       30.04R
6HR MIN TEMP:  68; 6HR MAX TEMP:  73;


$$
AND FOR LAKE MICHIGAN COASTAL AND OPEN LAKE BUOY OBSERVATIONS

STATION/POSITION TEMP    WIND        PRES    VSBY  WAVE
                 AIR SEA DIR/SP/G                  HT/PER
                 (F)     (DEG/KT/KT) (MB)    (MI)  (FT/S)
CALUMET HARBOR    69     360/  7/  9 1017.9R
MICHIGAN CITY     69      20/ 10/ 12   N/A
BURNS HARBOR      69      10/ 10/ 13 1018.3S
SAINT JOSEPH      69      10/  9/ 11 1019.0
SOUTH LAKE BUOY   67 70  360/ 14/ 16 1018.1          4/ 6
4 MI NW BRIDGMAN  70 73   40/ 12/ 16 1017.9          4/ 6
MICHIGAN CITY     70 74   20/ 10/ 14   N/A           4/ 6

$$
&&



USA.gov is the U.S. government's official web portal to all federal, state and local government web resources and services.